Location: Cheyres
(46.8153°N, 6.7877°E)
Time: 18:09:35
(UTC+00:00)

QB50P2 - Pass Details

Date: 02 July 2022
Orbit: 590 x 605 km, 97.9° (Epoch: 18 August)

Event Time Altitude Azimuth Distance (km) Brightness Sun altitude
Rises 00:14:55 0° 23° (NNE) 2,862 ? -19.6°
Reaches altitude 10° 00:17:21 10° 35° (NE) 1,957 ? -19.5°
Maximum altitude 00:21:01 28° 95° (E) 1,149 ? -19.4°
Enters shadow 00:22:30 23° 129° (SE) 1,312 ? -19.4°
